EW5058 Weather Reports


Display with metric or nautical units.
time (UTC)temp
F
wind
direction
speed
MPH
gust
MPH
rain 1hr
in
rain 24hr
in
rain mn
in
humidity
%
barometer
mb
20260902035819 80 0.0 1.0 0.00 0.00 0.00 83 1015.9
20260902034819 80 23 2.0 6.0 0.00 0.00 0.00 87 1015.7
20260902033819 80 0.0 0.0 0.00 0.00 0.00 89 1015.4
20260902032819 80 135 1.0 2.0 0.00 0.00 0.00 89 1015.3
20260902031919 80 0.0 1.0 0.00 0.00 0.00 91 1015.3
20260902030819 80 0.0 0.0 0.00 0.00 0.00 90 1015.0
20260902025819 80 0.0 0.0 0.00 0.00 0.00 90 1014.8
20260902024819 81 0.0 0.0 0.00 0.00 0.00 89 1014.7
20260902023819 81 0.0 0.0 0.00 0.00 0.00 89 1014.5
20260902022819 81 0.0 0.0 0.00 0.00 0.00 88 1014.4
20260902021819 82 0.0 0.0 0.00 0.00 0.00 87 1014.6
20260902020819 82 0.0 0.0 0.00 0.00 0.00 87 1014.7
20260902015839 82 0.0 0.0 0.00 0.00 0.00 86 1014.5
20260902014819 82 0.0 0.0 0.00 0.00 0.00 86 1014.3
20260902013839 82 180 2.0 4.0 0.00 0.00 0.00 86 1013.8
20260902012819 82 180 1.0 2.0 0.00 0.00 0.00 85 1013.7
20260902011819 83 180 1.0 3.0 0.00 0.00 0.00 85 1013.9
20260902010819 83 180 1.0 3.0 0.00 0.00 0.00 84 1014.1
20260902005819 83 0.0 0.0 0.00 0.00 0.00 84 1014.1
20260902004819 83 0.0 0.0 0.00 0.00 0.00 83 1014.0
20260902003819 84 0.0 0.0 0.00 0.00 0.00 83 1013.5
20260902002839 84 0.0 0.0 0.00 0.00 0.00 83 1013.0
20260902001819 83 0.0 1.0 0.00 0.00 0.00 83 1012.6
20260902000839 83 180 1.0 2.0 0.00 0.00 0.00 84 1012.9
20260901235819 83 0.0 0.0 0.00 0.00 0.00 84 1013.2
20260901234819 84 0.0 0.0 0.00 0.00 0.00 84 1013.2
20260901233819 84 0.0 0.0 0.00 0.00 0.00 83 1013.1
20260901232819 85 0.0 0.0 0.00 0.00 0.00 81 1013.2
20260901231818 86 0.0 1.0 0.00 0.00 0.00 80 1013.3
20260901230838 86 0.0 0.0 0.00 0.00 0.00 78 1013.4
20260901225818 87 0.0 0.0 0.00 0.00 0.00 77 1013.5
20260901224819 87 180 1.0 1.0 0.00 0.00 0.00 76 1013.4
20260901223819 88 180 2.0 4.0 0.00 0.00 0.00 74 1013.6
20260901222838 88 180 2.0 3.0 0.00 0.00 0.00 74 1013.5
20260901221818 88 180 2.0 2.0 0.00 0.00 0.00 75 1013.6
20260901220818 89 180 1.0 2.0 0.00 0.00 0.00 75 1013.6
20260901215818 89 158 1.0 2.0 0.00 0.00 0.00 74 1013.7
20260901214818 89 158 1.0 4.0 0.00 0.00 0.00 75 1013.8
20260901213818 89 180 3.0 5.0 0.00 0.00 0.00 74 1013.9
20260901212819 89 180 1.0 2.0 0.00 0.00 0.00 74 1013.9
20260901211858 89 180 2.0 2.0 0.00 0.00 0.00 74 1014.0
20260901210820 89 158 1.0 2.0 0.00 0.00 0.00 74 1014.0
20260901205818 89 180 3.0 6.0 0.00 0.00 0.00 74 1014.1
20260901204818 89 203 1.0 2.0 0.00 0.00 0.00 75 1014.0
20260901203820 89 158 3.0 6.0 0.00 0.00 0.00 75 1014.1
20260901202819 89 180 1.0 2.0 0.00 0.00 0.00 76 1014.2
20260901201818 89 180 3.0 5.0 0.00 0.00 0.00 75 1014.2
20260901200820 89 158 1.0 2.0 0.00 0.00 0.00 77 1014.2
20260901195820 89 158 1.0 2.0 0.00 0.00 0.00 78 1014.5
20260901194818 89 158 1.0 2.0 0.00 0.00 0.00 76 1014.7
20260901193820 90 158 2.0 4.0 0.00 0.00 0.00 74 1014.8
20260901192818 91 158 2.0 4.0 0.00 0.00 0.00 72 1014.9
20260901191838 92 0.0 0.0 0.00 0.00 0.00 72 1014.9
20260901190818 93 158 1.0 2.0 0.00 0.00 0.00 72 1014.8
20260901185820 92 158 1.0 3.0 0.00 0.00 0.00 72 1014.8
20260901184818 90 180 2.0 3.0 0.00 0.00 0.00 73 1014.9
20260901183820 90 180 1.0 2.0 0.00 0.00 0.00 74 1015.0
20260901182820 89 180 2.0 3.0 0.00 0.00 0.00 75 1015.0
20260901181820 90 0.0 1.0 0.00 0.00 0.00 73 1015.1
20260901180820 91 180 1.0 2.0 0.00 0.00 0.00 69 1015.1
20260901175820 93 180 1.0 2.0 0.00 0.00 0.00 68 1015.1
20260901174820 95 203 1.0 2.0 0.00 0.00 0.00 70 1015.1
20260901173820 97 203 2.0 3.0 0.00 0.00 0.00 62 1015.3
20260901172820 96 203 1.0 2.0 0.00 0.00 0.00 68 1015.3
20260901171820 94 180 1.0 1.0 0.00 0.00 0.00 73 1015.3
20260901170820 94 180 2.0 2.0 0.00 0.00 0.00 69 1015.4
20260901165840 92 0.0 1.0 0.00 0.00 0.00 76 1015.4
20260901164820 92 180 2.0 3.0 0.00 0.00 0.00 70 1015.6
20260901163820 93 180 1.0 1.0 0.00 0.00 0.00 70 1015.5
20260901162820 94 203 1.0 2.0 0.00 0.00 0.00 71 1015.8
20260901161820 93 203 2.0 3.0 0.00 0.00 0.00 70 1016.0
20260901160900 93 203 1.0 1.0 0.00 0.00 0.00 75 1016.0
20260901155820 91 180 2.0 3.0 0.00 0.00 0.00 74 1016.0
20260901154820 92 180 1.0 3.0 0.00 0.00 0.00 74 1016.2
20260901153819 91 158 2.0 4.0 0.00 0.00 0.00 75 1016.2
20260901152839 90 180 1.0 2.0 0.00 0.00 0.00 80 1016.4
20260901151840 89 180 2.0 4.0 0.00 0.00 0.00 78 1016.4
20260901150820 86 0.0 1.0 0.00 0.00 0.00 82 1016.5
20260901145820 85 0.0 1.0 0.00 0.00 0.00 80 1016.4
20260901144840 86 203 1.0 2.0 0.00 0.00 0.00 78 1016.3
20260901143840 87 203 1.0 2.0 0.00 0.00 0.00 80 1016.5
20260901142820 87 0.0 1.0 0.00 0.00 0.00 82 1016.3
20260901141840 87 180 4.0 5.0 0.00 0.00 0.00 78 1016.2
20260901140819 85 0.0 1.0 0.00 0.00 0.00 83 1016.3
20260901135840 84 158 1.0 2.0 0.00 0.00 0.00 85 1016.5
20260901134819 83 0.0 0.0 0.00 0.00 0.00 87 1016.6
20260901133819 82 0.0 0.0 0.00 0.00 0.00 88 1016.8
20260901132819 82 0.0 0.0 0.00 0.00 0.00 90 1016.8
20260901131819 81 0.0 0.0 0.00 0.00 0.00 92 1016.8
20260901130820 80 0.0 0.0 0.00 0.00 0.00 93 1016.8
20260901125819 80 0.0 0.0 0.00 0.00 0.00 94 1016.8
20260901124839 79 0.0 2.0 0.00 0.00 0.00 96 1016.7
20260901123819 78 0.0 1.0 0.00 0.00 0.00 96 1016.7
20260901122859 78 0.0 0.0 0.00 0.00 0.00 97 1016.8
20260901121819 77 0.0 0.0 0.00 0.00 0.00 98 1016.8
20260901120819 77 180 1.0 3.0 0.00 0.00 0.00 99 1016.8
20260901115819 76 0.0 3.0 0.00 0.00 0.00 99 1016.9
20260901114819 75 0.0 0.0 0.00 0.00 0.00 99 1016.9
20260901113819 75 0.0 0.0 0.00 0.00 0.00 99 1016.8
20260901112819 75 0.0 0.0 0.00 0.00 0.00 99 1016.7
20260901111819 74 0.0 0.0 0.00 0.00 0.00 99 1016.8
20260901110819 74 0.0 0.0 0.00 0.00 0.00 99 1016.7
20260901105819 74 0.0 0.0 0.00 0.00 0.00 99 1016.7
20260901104819 74 0.0 1.0 0.00 0.00 0.00 98 1016.3
20260901103839 74 0.0 0.0 0.00 0.00 0.00 99 1016.3
20260901102819 74 0.0 1.0 0.00 0.00 0.00 99 1016.3
20260901101819 74 0.0 0.0 0.00 0.00 0.00 98 1016.2
20260901100819 74 0.0 0.0 0.00 0.00 0.00 98 1016.4
20260901095819 74 0.0 0.0 0.00 0.00 0.00 98 1016.4
20260901094818 75 0.0 0.0 0.00 0.00 0.00 98 1016.4
20260901093819 75 0.0 0.0 0.00 0.00 0.00 99 1016.4
20260901092819 75 0.0 0.0 0.00 0.00 0.00 98 1016.4
20260901091819 75 0.0 0.0 0.00 0.00 0.00 99 1016.4
20260901090819 75 0.0 0.0 0.00 0.00 0.00 99 1016.4
20260901085819 75 0.0 0.0 0.00 0.00 0.00 98 1016.4
20260901084819 75 0.0 0.0 0.00 0.00 0.00 98 1016.4
20260901083818 75 0.0 0.0 0.00 0.00 0.00 98 1016.4
20260901082819 75 0.0 0.0 0.00 0.00 0.00 98 1016.3
20260901081819 75 0.0 0.0 0.00 0.00 0.00 98 1016.5
20260901080818 74 0.0 0.0 0.00 0.00 0.00 98 1016.5
20260901075819 74 0.0 0.0 0.00 0.00 0.00 98 1016.5
20260901074819 74 0.0 0.0 0.00 0.00 0.00 97 1016.6
20260901073819 74 0.0 0.0 0.00 0.00 0.00 97 1016.7
20260901072838 74 0.0 0.0 0.00 0.00 0.00 97 1016.6
20260901071819 74 0.0 0.0 0.00 0.00 0.00 97 1016.7
20260901070839 74 0.0 0.0 0.00 0.00 0.00 97 1016.7
20260901065819 74 0.0 0.0 0.00 0.01 0.00 97 1016.6
20260901064818 74 0.0 0.0 0.00 0.01 0.00 97 1016.8
20260901063818 74 0.0 0.0 0.00 0.01 0.00 97 1016.9
20260901062819 74 0.0 0.0 0.00 0.01 0.00 97 1016.9
20260901061818 74 0.0 0.0 0.00 0.01 0.00 96 1016.9
20260901060818 74 0.0 0.0 0.00 0.01 0.00 96 1017.1
20260901055818 74 0.0 0.0 0.00 0.01 0.00 96 1017.1
20260901054838 74 0.0 0.0 0.00 0.01 0.00 96 1017.3
20260901053818 74 0.0 0.0 0.00 0.01 0.00 96 1017.4
20260901052818 74 0.0 0.0 0.00 0.01 0.00 96 1017.6
20260901051818 74 0.0 0.0 0.00 0.01 0.00 95 1017.7
20260901050818 74 0.0 0.0 0.00 0.01 0.00 95 1017.6
20260901045859 74 0.0 0.0 0.00 0.01 0.00 95 1017.8
20260901044818 74 0.0 0.0 0.00 0.01 0.00 95 1017.8
20260901043820 74 0.0 0.0 0.00 0.01 0.00 94 1017.9
20260901042820 74 0.0 0.0 0.00 0.01 0.00 94 1017.9
20260901041818 74 0.0 0.0 0.00 0.01 0.00 94 1017.9
20260901040818 74 0.0 0.0 0.00 0.01 0.00 93 1017.8